DW8501 Madrid ES current weather conditions

sailwx.info

Wind from 270 at 3 knots gusting 6

Air temperature 24.4° C
Dewpoint 4.2° C

Last reported at 2015-Sep-04 17:55 UTC.
Time now 2015-Sep-04 18:55 UTC

Location: N 40°27' W 003°35'.
View on Google Maps.

See reports from other nearby stations

  
Tides and Currents Weather Stations Pressure Air Temp Water Temp Dewpoint Dewpoint Depression Visibility Wind Speed Wind Dir Waves Ship Positions
date/time (UTC)wind fromknots sea level pressurealtimeterstation pressurevisibilityair tempwater tempwave heightnotes
2015-Sep-04 17:55 270 3 gusting 6 24.4
2015-Sep-04 17:50 285 3 gusting 6 24.4
2015-Sep-04 17:45 287 3 gusting 9 24.4
2015-Sep-04 17:40 295 1 gusting 9 25.0
2015-Sep-04 17:35 299 8 gusting 9 25.6
2015-Sep-04 17:30 284 2 gusting 8 25.0
2015-Sep-04 17:25 281 3 gusting 8 25.6
2015-Sep-04 17:20 282 6 gusting 9 25.6
2015-Sep-04 17:15 297 3 gusting 9 25.6
2015-Sep-04 17:10 310 3 gusting 9 25.6
2015-Sep-04 17:05 289 4 gusting 9 26.1
2015-Sep-04 17:00 285 2 gusting 7 25.6
2015-Sep-04 16:55 284 6 gusting 9 26.1
2015-Sep-04 16:50 286 1 gusting 10 25.6
2015-Sep-04 16:45 304 5 gusting 10 26.1
2015-Sep-04 16:40 285 1 gusting 10 26.7
2015-Sep-04 16:35 284 1 gusting 10 26.1
2015-Sep-04 16:30 302 1 gusting 10 25.6
2015-Sep-04 16:25 304 1 gusting 13 25.6
2015-Sep-04 16:20 316 3 gusting 13 25.6
2015-Sep-04 16:15 312 3 gusting 14 25.6
2015-Sep-04 16:10 284 3 gusting 14 25.6
2015-Sep-04 16:05 291 6 gusting 16 25.6
2015-Sep-04 16:00 313 8 gusting 16 26.1
2015-Sep-04 15:55 325 3 gusting 13 25.6
2015-Sep-04 15:50 322 6 gusting 9 25.6
2015-Sep-04 15:45 302 3 gusting 9 26.1
2015-Sep-04 15:40 254 0 gusting 10 26.1
2015-Sep-04 15:35 262 3 gusting 11 25.6
2015-Sep-04 15:30 289 7 gusting 11 25.6
2015-Sep-04 15:25 332 4 gusting 10 25.6
2015-Sep-04 15:20 338 3 gusting 13 25.0
2015-Sep-04 15:15 342 6 gusting 13 25.0
2015-Sep-04 15:10 334 6 gusting 15 25.0
2015-Sep-04 15:05 304 5 gusting 18 24.4
2015-Sep-04 15:00 287 12 gusting 18 24.4
2015-Sep-04 14:55 292 10 gusting 17 25.0
2015-Sep-04 14:50 307 3 gusting 17 24.4
2015-Sep-04 14:45 305 10 gusting 14 25.6
2015-Sep-04 14:40 300 6 gusting 13 25.6
2015-Sep-04 14:35 300 6 gusting 17 25.0
2015-Sep-04 14:30 284 7 gusting 17 25.0
2015-Sep-04 14:25 276 3 gusting 14 25.0
2015-Sep-04 14:20 281 6 gusting 14 25.0
2015-Sep-04 14:15 282 11 gusting 16 24.4
2015-Sep-04 14:05 262 7 gusting 14 24.4
2015-Sep-04 14:00 289 9 gusting 14 25.0
2015-Sep-04 13:55 293 4 gusting 13 25.6
2015-Sep-04 13:50 24.4
2015-Sep-04 13:40 244 6 gusting 15 25.6
2015-Sep-04 13:30 031 5 gusting 10 25.0
2015-Sep-04 13:20 117 1 gusting 4 26.1
2015-Sep-04 13:15 190 0 gusting 4 25.6
2015-Sep-04 13:10 006 3 gusting 7 24.4
2015-Sep-04 13:05 006 3 gusting 7 23.3
2015-Sep-04 12:55 353 5 gusting 7 22.8
2015-Sep-04 12:50 020 4 gusting 5 22.8
2015-Sep-04 12:35 043 4 gusting 8 22.2
2015-Sep-04 12:30 033 2 gusting 9 22.2
2015-Sep-04 12:25 010 6 gusting 11 22.8
2015-Sep-04 12:15 035 5 gusting 8 23.3
2015-Sep-04 12:10 084 1 gusting 6 23.3
2015-Sep-04 12:00 017 4 gusting 8 23.3
2015-Sep-04 11:50 044 3 gusting 13 24.4
2015-Sep-04 11:45 045 7 gusting 13 23.9
2015-Sep-04 11:40 087 8 gusting 12 25.6
2015-Sep-04 11:35 108 1 gusting 7 24.4
2015-Sep-04 11:30 085 1 gusting 8 23.9
2015-Sep-04 11:25 083 2 gusting 10 23.3
2015-Sep-04 11:20 075 6 gusting 10 23.3
2015-Sep-04 11:15 084 6 gusting 9 23.9
2015-Sep-04 11:10 060 2 gusting 10 23.3
2015-Sep-04 11:05 036 3 gusting 10 22.2
2015-Sep-04 11:00 025 6 gusting 9 22.8
2015-Sep-04 10:50 060 1 gusting 13 22.2
2015-Sep-04 10:45 080 7 gusting 13 22.8
2015-Sep-04 10:40 089 4 gusting 9 22.8
2015-Sep-04 10:35 082 1 gusting 10 22.2
2015-Sep-04 10:30 079 6 gusting 10 21.7
2015-Sep-04 10:25 077 6 gusting 9 21.7
2015-Sep-04 10:10 056 3 gusting 13 21.7
2015-Sep-04 10:05 054 8 gusting 13 21.1
2015-Sep-04 10:00 045 9 gusting 13 20.6
2015-Sep-04 09:55 044 9 gusting 12 20.6
2015-Sep-04 09:50 046 9 gusting 14 20.0
2015-Sep-04 09:45 060 7 gusting 14 20.0
2015-Sep-04 09:40 078 6 gusting 11 20.6
2015-Sep-04 09:35 052 3 gusting 11 20.0
2015-Sep-04 09:30 035 6 gusting 11 20.6
2015-Sep-04 09:25 023 4 gusting 9 20.6
2015-Sep-04 09:15 010 6 gusting 9 19.4
2015-Sep-04 09:10 036 6 gusting 12 19.4
2015-Sep-04 09:05 026 6 gusting 12 19.4
2015-Sep-04 08:55 356 6 gusting 9 19.4
2015-Sep-04 08:50 031 6 gusting 8 19.4
2015-Sep-04 08:45 055 5 gusting 8 19.4
2015-Sep-04 08:35 048 2 gusting 6 19.4
2015-Sep-04 08:25 052 2 gusting 7 18.9
2015-Sep-04 08:20 081 6 gusting 7 18.3
2015-Sep-04 08:15 091 6 gusting 8 18.3
2015-Sep-04 08:10 080 6 gusting 9 18.9
2015-Sep-04 08:05 066 5 gusting 10 18.3
2015-Sep-04 08:00 058 6 gusting 10 17.8
2015-Sep-04 07:55 063 6 gusting 11 17.2
2015-Sep-04 07:50 058 6 gusting 11 16.7
2015-Sep-04 07:45 063 7 gusting 11 16.7
2015-Sep-04 07:40 071 6 gusting 9 16.7
2015-Sep-04 07:35 052 4 gusting 11 16.7
2015-Sep-04 07:30 051 7 gusting 11 16.7
2015-Sep-04 07:25 048 9 gusting 11 17.2
2015-Sep-04 07:20 045 3 gusting 9 16.7
2015-Sep-04 07:15 052 5 gusting 9 16.1
2015-Sep-04 07:05 059 4 gusting 13 16.1
2015-Sep-04 07:00 058 6 gusting 12 16.1
2015-Sep-04 06:50 072 4 gusting 12 16.1
2015-Sep-04 06:45 075 6 gusting 9 16.1
2015-Sep-04 06:40 068 6 gusting 9 16.7
2015-Sep-04 06:35 060 3 gusting 8 16.1
2015-Sep-04 06:30 069 3 gusting 6 16.1
2015-Sep-04 06:20 069 5 gusting 8 15.6
2015-Sep-04 06:15 074 6 gusting 10 15.6
2015-Sep-04 06:10 082 4 gusting 10 15.6
2015-Sep-04 06:00 069 3 gusting 9 15.6
2015-Sep-04 05:55 058 6 gusting 10 15.6
2015-Sep-04 05:45 052 6 gusting 12 15.6
2015-Sep-04 05:35 056 9 gusting 13 15.6
2015-Sep-04 05:30 054 9 gusting 13 15.6
2015-Sep-04 05:25 055 8 gusting 13 15.6
2015-Sep-04 05:20 055 7 gusting 13 15.6
2015-Sep-04 05:15 064 9 gusting 13 15.6
2015-Sep-04 05:10 074 6 gusting 12 15.6
2015-Sep-04 05:05 072 8 gusting 13 15.6
2015-Sep-04 04:55 046 11 gusting 14 15.6
2015-Sep-04 04:50 046 12 gusting 14 15.6
2015-Sep-04 04:45 041 6 gusting 14 15.6
2015-Sep-04 04:40 041 10 gusting 13 15.6
2015-Sep-04 04:35 048 10 gusting 14 15.6
2015-Sep-04 04:30 048 8 gusting 14 15.6
2015-Sep-04 04:25 055 11 gusting 14 15.6
2015-Sep-04 04:20 056 6 gusting 11 15.6
2015-Sep-04 04:15 057 5 gusting 11 15.6
2015-Sep-04 04:10 067 8 gusting 11 15.6
2015-Sep-04 04:05 056 9 gusting 13 15.6
2015-Sep-04 04:00 046 9 gusting 13 15.6
2015-Sep-04 03:55 059 8 gusting 13 15.6
2015-Sep-04 03:50 056 7 gusting 13 15.6
2015-Sep-04 03:45 044 7 gusting 13 15.6
2015-Sep-04 03:40 039 6 gusting 13 16.1
2015-Sep-04 03:35 040 7 gusting 13 16.1
2015-Sep-04 03:30 047 7 gusting 13 16.1
2015-Sep-04 03:20 043 9 gusting 15 16.1
2015-Sep-04 03:15 052 11 gusting 16 16.1
2015-Sep-04 03:10 047 9 gusting 16 16.1
2015-Sep-04 03:05 042 13 gusting 15 16.1
2015-Sep-04 03:00 046 10 gusting 15 16.1
2015-Sep-04 02:50 052 10 gusting 15 16.1
2015-Sep-04 02:45 045 12 gusting 16 16.1
2015-Sep-04 02:40 043 10 gusting 16 16.1
2015-Sep-04 02:30 051 11 gusting 15 16.1
2015-Sep-04 02:25 054 8 gusting 14 16.1
2015-Sep-04 02:20 041 7 gusting 14 16.1
2015-Sep-04 02:15 049 10 gusting 19 16.1
2015-Sep-04 02:10 052 11 gusting 19 16.7
2015-Sep-04 02:05 049 13 gusting 18 16.7
2015-Sep-04 02:00 052 13 gusting 18 16.7
2015-Sep-04 01:55 049 12 gusting 16 16.7
2015-Sep-04 01:50 050 11 gusting 16 16.7
2015-Sep-04 01:45 053 13 gusting 16 16.7
2015-Sep-04 01:40 052 7 gusting 17 16.7
2015-Sep-04 01:35 054 8 gusting 17 16.7
2015-Sep-04 01:30 052 14 gusting 17 16.7
2015-Sep-04 01:25 047 13 gusting 17 16.7
2015-Sep-04 01:20 045 6 gusting 15 16.7
2015-Sep-04 01:15 049 10 gusting 15 16.7
2015-Sep-04 01:10 046 10 gusting 15 16.7
2015-Sep-04 01:05 036 8 gusting 13 16.7
2015-Sep-04 01:00 038 10 gusting 13 17.2
2015-Sep-04 00:55 053 7 gusting 14 17.2
2015-Sep-04 00:50 065 6 gusting 15 17.2
2015-Sep-04 00:40 052 9 gusting 18 17.2
2015-Sep-04 00:35 037 13 gusting 18 17.2
2015-Sep-04 00:25 033 14 gusting 17 17.2
2015-Sep-04 00:20 044 7 gusting 14 17.2
2015-Sep-04 00:05 080 9 gusting 13 17.8
2015-Sep-04 00:00 067 9 gusting 14 17.8
2015-Sep-03 23:55 052 12 gusting 16 17.8
2015-Sep-03 23:50 049 12 gusting 16 17.8
2015-Sep-03 23:45 045 10 gusting 18 17.8
2015-Sep-03 23:40 042 9 gusting 18 17.8
2015-Sep-03 23:35 053 8 gusting 16 17.8
2015-Sep-03 23:30 051 9 gusting 18 17.8
2015-Sep-03 23:25 051 9 gusting 18 17.8
2015-Sep-03 23:15 062 7 gusting 14 18.3
2015-Sep-03 23:10 069 6 gusting 16 18.3
2015-Sep-03 23:05 048 10 gusting 16 18.3
2015-Sep-03 23:00 036 11 gusting 17 18.3
2015-Sep-03 22:50 043 7 gusting 12 18.3
2015-Sep-03 22:45 038 7 gusting 15 18.3
2015-Sep-03 22:15 063 6 gusting 13 19.4
2015-Sep-03 22:10 089 4 gusting 13 19.4
2015-Sep-03 22:05 081 5 gusting 13 19.4
2015-Sep-03 22:00 070 5 gusting 14 19.4
2015-Sep-03 21:55 076 6 gusting 15 19.4
2015-Sep-03 21:45 069 10 gusting 15 19.4
2015-Sep-03 21:40 055 6 gusting 13 20.0
2015-Sep-03 21:35 050 10 gusting 13 20.0
2015-Sep-03 21:30 052 7 gusting 13 20.0
2015-Sep-03 21:25 060 6 gusting 13 20.0
2015-Sep-03 21:20 051 4 gusting 13 20.6
2015-Sep-03 21:15 040 8 gusting 13 20.6
2015-Sep-03 21:10 048 7 gusting 14 20.6
2015-Sep-03 21:05 060 8 gusting 14 20.6
2015-Sep-03 21:00 090 6 gusting 13 20.6
2015-Sep-03 20:55 082 4 gusting 14 20.6
2015-Sep-03 20:50 079 6 gusting 14 21.1
2015-Sep-03 20:45 079 7 gusting 12 21.1
2015-Sep-03 20:40 056 6 gusting 12 21.1
2015-Sep-03 20:35 053 7 gusting 12 21.7
2015-Sep-03 20:25 093 6 gusting 12 21.7
2015-Sep-03 20:20 088 6 gusting 12 22.2
2015-Sep-03 20:15 033 7 gusting 11 22.8
2015-Sep-03 20:05 276 1 gusting 5 23.3
2015-Sep-03 20:00 242 3 gusting 5 23.3
2015-Sep-03 19:55 230 2 gusting 3 23.3
2015-Sep-03 19:50 227 2 gusting 3 23.3
2015-Sep-03 19:40 237 3 gusting 4 23.3
2015-Sep-03 19:35 233 2 gusting 5 23.3
2015-Sep-03 19:30 216 3 gusting 5 23.3
2015-Sep-03 19:25 220 3 gusting 6 23.3
2015-Sep-03 19:15 205 4 gusting 6 23.3
2015-Sep-03 19:10 201 3 gusting 5 23.3
2015-Sep-03 19:05 202 2 gusting 6 23.3
2015-Sep-03 19:00 200 3 gusting 6 23.3
2015-Sep-03 18:50 231 3 gusting 6 23.9
2015-Sep-03 18:45 257 4 gusting 6 23.9
2015-Sep-03 18:40 264 3 gusting 6 23.9
2015-Sep-03 18:35 260 6 gusting 6 23.9
2015-Sep-03 18:30 263 4 gusting 7 23.9
2015-Sep-03 18:25 262 6 gusting 7 24.4
2015-Sep-03 18:20 297 1 gusting 9 24.4
2015-Sep-03 18:10 241 3 gusting 6 24.4
2015-Sep-03 18:05 250 3 gusting 11 24.4
2015-Sep-03 18:00 272 3 gusting 11 25.0
2015-Sep-03 17:55 277 6 gusting 13 25.0
2015-Sep-03 17:45 287 9 gusting 13 25.0
2015-Sep-03 17:40 252 6 gusting 10 25.6
2015-Sep-03 17:35 232 5 gusting 10 25.6
2015-Sep-03 17:30 244 7 gusting 9 25.0
2015-Sep-03 17:20 282 7 gusting 12 25.6
2015-Sep-03 17:15 246 8 gusting 12 25.6
2015-Sep-03 17:10 226 6 gusting 10 26.1
2015-Sep-03 17:05 227 7 gusting 12 26.1
2015-Sep-03 17:00 263 5 gusting 12 25.6
2015-Sep-03 16:55 289 2 gusting 13 25.6
2015-Sep-03 16:45 229 7 gusting 10 25.6
2015-Sep-03 16:35 221 5 gusting 13 25.6
2015-Sep-03 16:30 210 3 gusting 13 26.7
2015-Sep-03 16:25 221 4 gusting 13 26.1
2015-Sep-03 16:20 223 9 gusting 13 26.1
2015-Sep-03 16:05 258 6 gusting 12 26.1
2015-Sep-03 16:00 253 7 gusting 12 25.6
2015-Sep-03 15:45 239 5 gusting 9 26.7
2015-Sep-03 15:35 234 3 gusting 12 26.1
2015-Sep-03 15:25 246 2 gusting 6 26.7
2015-Sep-03 15:20 25.6
2015-Sep-03 15:15 25.6
2015-Sep-03 15:05 25.6
2015-Sep-03 15:00 25.6
2015-Sep-03 14:45 25.6
2015-Sep-03 14:40 25.6
2015-Sep-03 14:30 25.6
2015-Sep-03 14:20 25.6
2015-Sep-03 14:10 25.6
2015-Sep-03 14:05 25.6
2015-Sep-03 14:00 25.6
2015-Sep-03 13:55 25.6
2015-Sep-03 13:50 25.6
2015-Sep-03 13:45 25.6
2015-Sep-03 13:40 25.6
2015-Sep-03 13:35 25.6
2015-Sep-03 13:30 25.6
2015-Sep-03 13:20 25.6
2015-Sep-03 13:10 25.6
2015-Sep-03 13:00 25.6
2015-Sep-03 12:55 25.6
2015-Sep-03 12:50 25.6
2015-Sep-03 12:45 25.6
2015-Sep-03 12:40 25.6
2015-Sep-03 12:35 25.6
2015-Sep-03 12:25 25.6
2015-Sep-03 12:20 25.6
2015-Sep-03 12:15 25.6
2015-Sep-03 12:10 25.6
2015-Sep-03 12:00 25.6
2015-Sep-03 11:55 25.6
2015-Sep-03 11:50 25.6
2015-Sep-03 11:45 25.6
2015-Sep-03 11:40 25.6
2015-Sep-03 11:35 25.6
2015-Sep-03 11:20 25.6
2015-Sep-03 11:15 25.6
2015-Sep-03 11:10 25.6
2015-Sep-03 11:05 25.6
2015-Sep-03 11:00 25.6
2015-Sep-03 10:50 25.6
2015-Sep-03 10:45 25.6
2015-Sep-03 10:40 25.6
2015-Sep-03 10:35 25.6
2015-Sep-03 10:30 25.6
2015-Sep-03 10:20 25.6
2015-Sep-03 10:10 25.6
2015-Sep-03 10:00 25.6
2015-Sep-03 09:55 25.6
2015-Sep-03 09:50 25.6
2015-Sep-03 09:45 25.6
2015-Sep-03 09:40 25.6
2015-Sep-03 09:30 25.6
2015-Sep-03 09:20 25.6
2015-Sep-03 09:15 25.6
2015-Sep-03 09:10 25.6
2015-Sep-03 09:00 25.6
2015-Sep-03 08:50 25.6
2015-Sep-03 08:45 25.6
2015-Sep-03 08:40 25.6
2015-Sep-03 08:35 25.6
2015-Sep-03 08:25 25.6
2015-Sep-03 08:20 25.6
2015-Sep-03 08:15 25.6
2015-Sep-03 08:10 25.6
2015-Sep-03 08:05 25.6
2015-Sep-03 08:00 25.6
2015-Sep-03 07:55 25.6
2015-Sep-03 07:50 25.6
2015-Sep-03 07:45 25.6
2015-Sep-03 07:40 25.6
2015-Sep-03 07:30 25.6
2015-Sep-03 07:20 25.6
2015-Sep-03 07:15 25.6
2015-Sep-03 07:05 25.6
2015-Sep-03 07:00 25.0
2015-Sep-03 06:55 25.0
2015-Sep-03 06:50 25.0
2015-Sep-03 06:45 25.0
2015-Sep-03 06:20 25.0
2015-Sep-03 06:15 25.0
2015-Sep-03 06:05 25.0
2015-Sep-03 06:00 25.0
2015-Sep-03 05:55 25.0
2015-Sep-03 05:50 25.0
2015-Sep-03 05:45 25.0
2015-Sep-03 05:40 25.0
2015-Sep-03 05:35 25.0
2015-Sep-03 05:30 25.0
2015-Sep-03 05:25 25.0
2015-Sep-03 05:20 25.6
2015-Sep-03 05:10 25.6
2015-Sep-03 05:00 25.6
2015-Sep-03 04:55 25.6
2015-Sep-03 04:45 25.6
2015-Sep-03 04:40 25.6
2015-Sep-03 04:30 25.6
2015-Sep-03 04:20 25.6
2015-Sep-03 04:05 25.6
2015-Sep-03 04:00 25.6
2015-Sep-03 03:45 26.1
2015-Sep-03 03:40 26.1
2015-Sep-03 03:35 26.1
2015-Sep-03 03:30 26.1
2015-Sep-03 03:25 26.1
2015-Sep-03 03:20 26.1
2015-Sep-03 03:15 26.1
2015-Sep-03 03:10 26.1
2015-Sep-03 03:05 26.1
2015-Sep-03 03:00 26.1
2015-Sep-03 02:55 26.1
2015-Sep-03 02:50 26.1
2015-Sep-03 02:45 26.1
2015-Sep-03 02:40 26.1
2015-Sep-03 02:35 26.1
2015-Sep-03 02:25 26.1
2015-Sep-03 02:15 26.7
2015-Sep-03 02:10 26.7
2015-Sep-03 01:55 26.7
2015-Sep-03 01:50 26.7
2015-Sep-03 01:45 26.7
2015-Sep-03 01:35 26.7
2015-Sep-03 01:25 26.7
2015-Sep-03 01:15 26.7
2015-Sep-03 01:10 26.7
2015-Sep-03 01:00 26.7
2015-Sep-03 00:55 26.7
2015-Sep-03 00:50 26.7
2015-Sep-03 00:45 26.7
2015-Sep-03 00:40 26.7
2015-Sep-03 00:25 26.7
2015-Sep-03 00:20 27.2
2015-Sep-03 00:15 27.2
2015-Sep-03 00:00 27.2
2015-Sep-02 23:55 27.2
2015-Sep-02 23:50 27.2
2015-Sep-02 23:45 27.2
2015-Sep-02 23:40 27.2
2015-Sep-02 23:30 27.2
2015-Sep-02 23:25 27.2
2015-Sep-02 23:20 27.2
2015-Sep-02 23:10 27.2
2015-Sep-02 23:05 27.2
2015-Sep-02 22:55 27.2
2015-Sep-02 22:50 27.2
2015-Sep-02 22:45 27.2
2015-Sep-02 22:40 27.2
2015-Sep-02 22:35 27.2
2015-Sep-02 22:30 27.2
2015-Sep-02 22:25 27.8
2015-Sep-02 22:15 27.8
2015-Sep-02 22:10 27.8
2015-Sep-02 22:05 27.8
2015-Sep-02 21:45 27.8
2015-Sep-02 21:40 27.8
2015-Sep-02 21:35 27.8
2015-Sep-02 21:30 27.8
2015-Sep-02 21:20 27.8
2015-Sep-02 21:15 27.8
2015-Sep-02 21:05 27.8
2015-Sep-02 20:55 27.8
2015-Sep-02 20:50 27.8
2015-Sep-02 20:40 27.8
2015-Sep-02 20:30 27.8
2015-Sep-02 20:25 27.8
2015-Sep-02 20:15 27.8
2015-Sep-02 20:05 28.3
2015-Sep-02 19:55 28.3
2015-Sep-02 19:35 28.3
2015-Sep-02 19:25 28.3
2015-Sep-02 19:15 28.3
2015-Sep-02 19:10 28.3
2015-Sep-02 19:05 28.9
2015-Sep-02 19:00 28.9
2015-Sep-02 18:45 28.9
2015-Sep-02 18:40 28.9
2015-Sep-02 18:35 28.9
2015-Sep-02 18:30 29.4
2015-Sep-02 18:25 29.4
2015-Sep-02 18:20 29.4
2015-Sep-02 18:15 29.4
2015-Sep-02 18:10 29.4
2015-Sep-02 18:05 29.4
2015-Sep-02 18:00 29.4